Wolf Point, MT

12:41 PM MDT on June 28, 2017 (GMT -0600)
Clayton

Weather History for KOLF - October, 2012

Change the Weather History Date:

Wednesday, October 31, 2012

  Actual Average Record
Temperature  
Mean Temperature 38 °F -  
Max Temperature 46 °F 50 °F 79 °F (1999)
Min Temperature 30 °F 23 °F 0 °F (2003)
Degree Days  
Heating Degree Days 27    
Cooling Degree Days 0    
Moisture  
Dew Point 31 °F    
Average Humidity 83    
Maximum Humidity 96    
Minimum Humidity 75    
Precipitation  
Precipitation 0.00 in 0.02 in 0.46 in (2016)
Month to date precipitation 0.73 0.81  
Year to date precipitation 9.87 11.49  
Sea Level Pressure  
Sea Level Pressure 30.11 in    
Wind  
Wind Speed 7 mph (NE)    
Max Wind Speed 15 mph    
Max Gust Speed 22 mph    
Visibility 10 miles    
Events      
T = Trace of Precipitation, MM = Missing Value Source: NWS Daily Summary

Daily Weather History Graph

Daily Weather History Graph

Search for Another Location

Airport or City:

Trip Planner

Search our weather history database for the weather conditions in past years. The results will help you decide how hot, cold, wet, or windy it might be!

Date:

Astronomy

Oct. 31, 2012 Rise Set
Actual Time 7:46 AM MDT 5:44 PM MDT
Civil Twilight 7:14 AM MDT 6:16 PM MDT
Nautical Twilight 6:37 AM MDT 6:53 PM MDT
Astronomical Twilight 6:01 AM MDT 7:29 PM MDT
Moon 6:48 PM MDT (10/31) 9:38 AM MDT (10/31)
Length of Visible Light 11h 02m
Length of Day
9h 57m
Full, 97% of the Moon is Illuminated
Oct 31
Full
Nov 6
Last Quarter
Nov 13
New
Nov 20
First Quarter
Nov 28
Full

Hourly Weather History & Observations

Time (MDT) Temp. Windchill Dew Point Humidity Pressure Visibility Wind Dir Wind Speed Gust Speed Precip Events Conditions
12:53 AM 35.1 °F - 33.1 °F 92% 29.95 in 10.0 mi Calm Calm - N/A   Partly Cloudy
1:53 AM 37.0 °F 34.5 °F 36.0 °F 96% 29.95 in 10.0 mi East 3.5 mph - N/A   Overcast
2:53 AM 39.0 °F 36.8 °F 36.0 °F 89% 29.96 in 10.0 mi North 3.5 mph 18.4 mph N/A   Overcast
3:53 AM 36.0 °F - 34.0 °F 93% 29.97 in 10.0 mi Calm Calm - N/A   Scattered Clouds
4:53 AM 42.1 °F 39.2 °F 37.9 °F 85% 29.98 in 10.0 mi NNE 4.6 mph - N/A   Mostly Cloudy
5:53 AM 39.9 °F 33.9 °F 36.0 °F 86% 30.04 in 10.0 mi North 9.2 mph 18.4 mph N/A   Partly Cloudy
6:50 AM 37.4 °F 34.9 °F 33.8 °F 87% 30.03 in 10.0 mi Variable 3.5 mph - N/A   Overcast
6:53 AM 37.9 °F 33.5 °F 34.0 °F 86% 30.08 in 10.0 mi Variable 5.8 mph - N/A   Overcast
7:05 AM 37.4 °F 30.8 °F 33.8 °F 87% 30.04 in 10.0 mi NNE 9.2 mph 21.9 mph N/A   Overcast
7:19 AM 37.4 °F 30.8 °F 33.8 °F 87% 30.05 in 10.0 mi ENE 9.2 mph - N/A   Overcast
7:35 AM 37.4 °F 29.3 °F 32.0 °F 81% 30.06 in 10.0 mi NNE 12.7 mph - N/A   Overcast
7:53 AM 37.0 °F 31.6 °F 30.9 °F 79% 30.12 in 10.0 mi Variable 6.9 mph 16.1 mph N/A   Overcast
8:03 AM 37.4 °F 28.9 °F 30.2 °F 75% 30.07 in 10.0 mi NNE 13.8 mph - N/A   Overcast
8:13 AM 37.4 °F 29.3 °F 30.2 °F 75% 30.07 in 10.0 mi NE 12.7 mph - N/A   Overcast
8:30 AM 35.6 °F 31.7 °F 32.0 °F 87% 30.09 in 10.0 mi East 4.6 mph 16.1 mph N/A   Overcast
8:53 AM 36.0 °F 28.5 °F 32.0 °F 86% 30.17 in 10.0 mi NNE 10.4 mph - N/A   Overcast
9:53 AM 37.0 °F 29.8 °F 32.0 °F 82% 30.19 in 10.0 mi NE 10.4 mph - N/A   Overcast
10:53 AM 37.9 °F 31.5 °F 32.0 °F 79% 30.21 in 10.0 mi NE 9.2 mph - N/A   Overcast
11:53 AM 37.9 °F 30.9 °F 32.0 °F 79% 30.22 in 10.0 mi NNE 10.4 mph - N/A   Overcast
12:53 PM 37.4 °F 31.4 °F 32.0 °F 81% 30.17 in 10.0 mi NNE 8.1 mph - N/A   Overcast
1:09 PM 37.4 °F 30.8 °F 32.0 °F 81% 30.15 in 10.0 mi NNE 9.2 mph - N/A   Overcast
1:53 PM 39.0 °F 32.8 °F 32.0 °F 76% 30.21 in 10.0 mi ENE 9.2 mph - N/A   Overcast
2:53 PM 37.9 °F 31.5 °F 30.9 °F 76% 30.19 in 10.0 mi NE 9.2 mph - N/A   Overcast
3:53 PM 37.9 °F 31.5 °F 32.0 °F 79% 30.19 in 10.0 mi ENE 9.2 mph - N/A   Overcast
4:53 PM 37.9 °F 30.9 °F 30.9 °F 76% 30.19 in 10.0 mi East 10.4 mph - N/A   Scattered Clouds
5:04 PM 37.4 °F 30.3 °F 32.0 °F 81% 30.14 in 10.0 mi East 10.4 mph - N/A   Mostly Cloudy
5:53 PM 37.9 °F 31.5 °F 30.9 °F 76% 30.20 in 10.0 mi ENE 9.2 mph - N/A   Overcast
6:53 PM 35.1 °F 28.6 °F 30.0 °F 82% 30.20 in 10.0 mi East 8.1 mph - N/A   Mostly Cloudy
7:00 PM 35.6 °F 28.6 °F 30.2 °F 81% 30.13 in 10.0 mi East 9.2 mph - N/A   Scattered Clouds
7:53 PM 35.1 °F 26.9 °F 28.9 °F 78% 30.19 in 10.0 mi ENE 11.5 mph - N/A   Clear
8:53 PM 33.1 °F 24.4 °F 28.0 °F 82% 30.18 in 10.0 mi ENE 11.5 mph - N/A   Clear
9:53 PM 32.0 °F 23.6 °F 27.0 °F 82% 30.19 in 10.0 mi ENE 10.4 mph - N/A   Clear
10:39 PM 30.2 °F 21.3 °F 26.6 °F 86% 30.11 in 10.0 mi East 10.4 mph - N/A   Mostly Cloudy
10:46 PM 30.2 °F 21.3 °F 26.6 °F 86% 30.10 in 10.0 mi ENE 10.4 mph - N/A   Scattered Clouds
10:53 PM 30.0 °F 21.7 °F 27.0 °F 88% 30.17 in 10.0 mi East 9.2 mph - N/A   Mostly Cloudy
11:02 PM 30.2 °F 20.8 °F 26.6 °F 86% 30.11 in 10.0 mi ENE 11.5 mph - N/A   Mostly Cloudy
11:35 PM 30.2 °F 19.8 °F 28.4 °F 93% 30.10 in 10.0 mi ENE 13.8 mph - N/A   Overcast
11:53 PM 30.9 °F 20.2 °F 27.0 °F 85% 30.16 in 9.0 mi ENE 15.0 mph - N/A   Overcast